Regional Weather Roundup
Issued by NWS

Home | Current Version | Previous Version | Text Only | Print | Product List | Glossary On
Versions: 1 2 3 4 5 6 7 8 9 10 11 12 13 14 15 16 17 18 19 20 21 22 23 24 25 26 27 28 29 30 31 32 33 34 35 36 37 38 39 40 41 42 43 44 45 46 47 48 49 50
000
ASUS45 KREV 250310
RWRNV
NEVADA REGIONAL WEATHER ROUNDUP
NATIONAL WEATHER SERVICE RENO NV
800 PM PDT TUE MAY 24 2016

NOTE: "FAIR" INDICATES FEW OR NO CLOUDS BELOW 12,000 FEET WITH NO
SIGNIFICANT WEATHER AND/OR OBSTRUCTIONS TO VISIBILITY.

NVZ001-003-004-250400-
WESTERN NEVADA

CITY           SKY/WX    TMP DP  RH WIND       PRES   REMARKS
RENO           MOCLDY    56  38  50 NW14G26   29.97R
CARSON CITY    CLOUDY    54  36  50 W5        29.99R
MINDEN         MOCLDY    52  37  58 W8        30.00R
SLIDE MTN        N/A     32  32 100 W14         N/A
FALLON         MOCLDY    61  39  44 SW8       29.92R
LOVELOCK       CLOUDY    57  41  55 S14       29.90R
HAWTHORNE      CLOUDY    61  34  36 NW12      29.94R
$$

NVZ002-CAZ072-073-250400-
NORTHERN AND CENTRAL SIERRA

CITY           SKY/WX    TMP DP  RH WIND       PRES   REMARKS
S. LAKE TAHOE  CLOUDY    43  37  79 S8        30.04R
TRUCKEE        CLOUDY    45  36  70 W7        30.06R
SQUAW VLY 8000 NOT AVBL
SUSANVILLE     LGT RAIN  52  43  71 W14       30.00R
BLUE CANYON    LGT RAIN  42  39  89 E3        30.07R
MAMMOTH LAKES  FAIR      43  35  72 NW5       30.04S
BRIDGEPORT     LGT RAIN  42  35  76 NE7       30.02R
$$

NVZ030-031-036-250400-
NORTHERN NEVADA

CITY           SKY/WX    TMP DP  RH WIND       PRES   REMARKS
ELKO           MOCLDY    50  41  71 S5        29.96R
WINNEMUCCA     MOCLDY    55  40  56 VRB3      29.93R
WENDOVER       CLOUDY    55  36  47 NW15      29.90R
$$

NVZ035-037-250400-
CENTRAL NEVADA

CITY           SKY/WX    TMP DP  RH WIND       PRES   REMARKS
ELY            LGT RAIN  45  36  70 SE6       30.01R
EUREKA           N/A     47  38  71 E6        29.99R
$$

NVZ013-014-250400-
SOUTH CENTRAL NEVADA

CITY           SKY/WX    TMP DP  RH WIND       PRES   REMARKS
TONOPAH        CLOUDY    54  32  43 N15       29.97R
$$

NVZ017-020-022-250400-
SOUTHERN NEVADA

CITY           SKY/WX    TMP DP  RH WIND       PRES   REMARKS
LAS VEGAS      PTCLDY    75  28  17 S9G17     29.81R
N. LAS VEGAS   PTCLDY    75  28  17 SW13G20   29.83R
NELLIS AFB     CLEAR     75  30  19 S14       29.82R
HENDERSON      CLEAR     72  29  20 SW17      29.87R
MERCURY        PTCLDY    68  29  23 S13G23    29.86R
$$



USA.gov is the U.S. government's official web portal to all federal, state and local government web resources and services.